When you browse on this site, cookies collect data to enhance your experience and personalize the content and advertising you see.
Visit our Privacy Policy to learn more. By continuing to use the site, you agree to this use of cookies and data.
  • In Latvia
  • List of Countries
  • For 7 days
  • Water Temperature
  • Weather Map
  • Weather Widgets
  • user-avatar
    Login

    Hourly Weather Komarkov

    Today, 22 November, Friday

    Time Temperature Precipitation Wind Pressure Humidity
    00:00 -13°C° 0 mm 8 mps 775 mmHg 36%
    01:00 -15°C° 0 mm 8 mps 774 mmHg 39%
    02:00 -15°C° 0 mm 8 mps 774 mmHg 42%
    03:00 -15°C° 0 mm 8 mps 774 mmHg 45%
    04:00 -15°C° 0 mm 8 mps 774 mmHg 47%
    05:00 -15°C° 0 mm 8 mps 774 mmHg 49%
    06:00 -15°C° 0 mm 8 mps 774 mmHg 50%
    07:00 -13°C° 0 mm 8 mps 774 mmHg 49%
    08:00 -13°C° 0 mm 8 mps 774 mmHg 48%
    09:00 -13°C° 0 mm 8 mps 774 mmHg 47%
    10:00 -11°C° 0 mm 8 mps 774 mmHg 43%
    11:00 -10°C° 0 mm 8 mps 774 mmHg 40%
    12:00 -7°C° 0 mm 8 mps 773 mmHg 36%
    13:00 -7°C° 0 mm 8 mps 773 mmHg 34%
    14:00 -7°C° 0 mm 8 mps 773 mmHg 33%
    15:00 -7°C° 0 mm 8 mps 772 mmHg 31%
    16:00 -8°C° 0 mm 8 mps 772 mmHg 33%
    17:00 -9°C° 0 mm 7 mps 772 mmHg 35%
    18:00 -11°C° 0 mm 7 mps 772 mmHg 37%
    19:00 -11°C° 0 mm 7 mps 773 mmHg 37%
    20:00 -11°C° 0 mm 7 mps 773 mmHg 37%
    21:00 -12°C° 0 mm 7 mps 773 mmHg 36%
    22:00 -12°C° 0 mm 7 mps 773 mmHg 38%
    23:00 -12°C° 0 mm 7 mps 772 mmHg 39%

    Tomorrow, 23 November, Saturday

    Time Temperature Precipitation Wind Pressure Humidity
    00:00 -12°C° 0 mm 7 mps 772 mmHg 40%
    01:00 -12°C° 0 mm 7 mps 772 mmHg 41%
    02:00 -12°C° 0 mm 7 mps 772 mmHg 41%
    03:00 -11°C° 0 mm 6 mps 771 mmHg 42%
    04:00 -12°C° 0 mm 6 mps 771 mmHg 43%
    05:00 -12°C° 0 mm 6 mps 771 mmHg 43%
    06:00 -12°C° 0 mm 6 mps 771 mmHg 43%
    07:00 -11°C° 0 mm 6 mps 771 mmHg 42%
    08:00 -12°C° 0 mm 7 mps 771 mmHg 40%
    09:00 -11°C° 0 mm 7 mps 771 mmHg 39%
    10:00 -9°C° 0 mm 7 mps 771 mmHg 35%
    11:00 -7°C° 0 mm 7 mps 771 mmHg 32%
    12:00 -4°C° 0 mm 7 mps 770 mmHg 29%
    13:00 -4°C° 0 mm 7 mps 770 mmHg 28%
    14:00 -4°C° 0 mm 7 mps 770 mmHg 27%
    15:00 -4°C° 0 mm 7 mps 769 mmHg 26%
    16:00 -5°C° 0 mm 6 mps 769 mmHg 28%
    17:00 -6°C° 0 mm 6 mps 769 mmHg 31%
    18:00 -8°C° 0 mm 6 mps 769 mmHg 34%
    19:00 -8°C° 0 mm 6 mps 769 mmHg 35%
    20:00 -8°C° 0 mm 6 mps 769 mmHg 36%
    21:00 -9°C° 0 mm 6 mps 769 mmHg 37%
    22:00 -9°C° 0 mm 6 mps 769 mmHg 38%
    23:00 -9°C° 0 mm 6 mps 769 mmHg 39%

    Day after tomorrow, 24 November, Sunday

    Time Temperature Precipitation Wind Pressure Humidity
    00:00 -9°C° 0 mm 6 mps 769 mmHg 40%
    01:00 -9°C° 0 mm 6 mps 769 mmHg 41%
    02:00 -9°C° 0 mm 6 mps 769 mmHg 42%
    03:00 -9°C° 0 mm 6 mps 769 mmHg 43%
    04:00 -9°C° 0 mm 6 mps 769 mmHg 44%
    05:00 -9°C° 0 mm 6 mps 768 mmHg 45%
    06:00 -9°C° 0 mm 6 mps 768 mmHg 46%
    07:00 -9°C° 0 mm 6 mps 768 mmHg 46%
    08:00 -8°C° 0 mm 7 mps 768 mmHg 46%
    09:00 -8°C° 0 mm 7 mps 769 mmHg 46%
    10:00 -6°C° 0 mm 7 mps 768 mmHg 44%
    11:00 -3°C° 0 mm 7 mps 768 mmHg 42%
    12:00 -2°C° 0 mm 7 mps 768 mmHg 40%
    13:00 -2°C° 0 mm 7 mps 767 mmHg 38%
    14:00 -2°C° 0 mm 7 mps 767 mmHg 37%
    15:00 -2°C° 0 mm 7 mps 767 mmHg 36%
    16:00 -3°C° 0 mm 6 mps 767 mmHg 37%
    17:00 -4°C° 0 mm 6 mps 767 mmHg 38%
    18:00 -5°C° 0 mm 6 mps 767 mmHg 39%
    19:00 -6°C° 0 mm 6 mps 767 mmHg 41%
    20:00 -6°C° 0 mm 6 mps 767 mmHg 43%
    21:00 -6°C° 0 mm 6 mps 767 mmHg 44%
    22:00 -6°C° 0 mm 6 mps 767 mmHg 47%
    23:00 -6°C° 0 mm 6 mps 766 mmHg 50%

    25 November, Monday

    Time Temperature Precipitation Wind Pressure Humidity
    00:00 -6°C° 0 mm 6 mps 766 mmHg 53%
    01:00 -6°C° 0 mm 6 mps 766 mmHg 56%
    02:00 -8°C° 0 mm 6 mps 766 mmHg 59%
    03:00 -8°C° 0 mm 6 mps 766 mmHg 62%
    04:00 -8°C° 0 mm 6 mps 766 mmHg 65%
    05:00 -8°C° 0 mm 6 mps 765 mmHg 68%
    06:00 -8°C° 0 mm 6 mps 765 mmHg 70%
    07:00 -8°C° 0 mm 6 mps 765 mmHg 68%
    08:00 -6°C° 0 mm 6 mps 765 mmHg 65%
    09:00 -7°C° 0 mm 7 mps 765 mmHg 63%
    10:00 -4°C° 0 mm 6 mps 765 mmHg 58%
    11:00 -3°C° 0 mm 6 mps 765 mmHg 53%
    12:00 -2°C° 0 mm 6 mps 765 mmHg 48%
    13:00 -1°C° 0 mm 6 mps 764 mmHg 49%
    14:00 -1°C° 0 mm 6 mps 764 mmHg 49%
    15:00 -1°C° 0 mm 6 mps 764 mmHg 50%
    16:00 -2°C° 0 mm 6 mps 764 mmHg 51%
    17:00 -3°C° 0 mm 6 mps 764 mmHg 52%
    18:00 -4°C° 0 mm 6 mps 764 mmHg 54%
    19:00 -4°C° 0 mm 6 mps 764 mmHg 54%
    20:00 -4°C° 0 mm 6 mps 763 mmHg 55%
    21:00 -4°C° 0 mm 6 mps 763 mmHg 56%
    22:00 -4°C° 0 mm 6 mps 763 mmHg 58%
    23:00 -4°C° 0 mm 6 mps 763 mmHg 61%

    26 November, Tuesday

    Time Temperature Precipitation Wind Pressure Humidity
    00:00 -4°C° 0 mm 7 mps 763 mmHg 63%
    01:00 -4°C° 0 mm 7 mps 762 mmHg 63%
    02:00 -4°C° 0 mm 7 mps 762 mmHg 64%
    03:00 -4°C° 0 mm 7 mps 762 mmHg 64%
    04:00 -4°C° 0 mm 7 mps 762 mmHg 68%
    05:00 -4°C° 0 mm 7 mps 762 mmHg 72%
    06:00 -4°C° 0 mm 7 mps 761 mmHg 75%
    07:00 -4°C° 0 mm 7 mps 761 mmHg 76%
    08:00 -4°C° 0 mm 7 mps 762 mmHg 76%
    09:00 -3°C° 0 mm 7 mps 762 mmHg 76%
    10:00 -2°C° 0 mm 7 mps 761 mmHg 73%
    11:00 0°C° 0 mm 7 mps 761 mmHg 69%
    12:00 +2°C° 0 mm 7 mps 761 mmHg 66%
    13:00 +2°C° 0 mm 7 mps 760 mmHg 64%
    14:00 +3°C° 0 mm 7 mps 760 mmHg 63%
    15:00 +3°C° 0 mm 7 mps 760 mmHg 62%
    16:00 +2°C° 0 mm 7 mps 760 mmHg 65%
    17:00 0°C° 0 mm 7 mps 760 mmHg 68%
    18:00 -1°C° 0 mm 7 mps 760 mmHg 71%
    19:00 -1°C° 0 mm 7 mps 760 mmHg 71%
    20:00 -2°C° 0 mm 7 mps 759 mmHg 72%
    21:00 -2°C° 0 mm 7 mps 759 mmHg 72%
    22:00 -2°C° 0 mm 7 mps 759 mmHg 73%
    23:00 -2°C° 0 mm 7 mps 759 mmHg 74%

    27 November, Wednesday

    Time Temperature Precipitation Wind Pressure Humidity
    00:00 -2°C° 0 mm 7 mps 759 mmHg 75%
    01:00 -2°C° 0 mm 6 mps 759 mmHg 78%
    02:00 -3°C° 0 mm 6 mps 759 mmHg 81%
    03:00 -3°C° 0 mm 6 mps 759 mmHg 84%
    04:00 -3°C° 0 mm 6 mps 759 mmHg 83%
    05:00 -3°C° 0 mm 6 mps 759 mmHg 81%
    06:00 -3°C° 0 mm 6 mps 759 mmHg 80%
    07:00 -3°C° 0 mm 6 mps 759 mmHg 79%
    08:00 -2°C° 0 mm 7 mps 759 mmHg 78%
    09:00 -2°C° 0 mm 7 mps 759 mmHg 77%
    10:00 -2°C° 0 mm 7 mps 759 mmHg 75%
    11:00 -1°C° 0 mm 7 mps 759 mmHg 74%
    12:00 -1°C° 0 mm 7 mps 758 mmHg 72%
    13:00 +1°C° 0 mm 6 mps 758 mmHg 71%
    14:00 +1°C° 0 mm 6 mps 758 mmHg 70%
    15:00 +1°C° 0 mm 6 mps 758 mmHg 70%
    16:00 +1°C° 0 mm 6 mps 758 mmHg 69%
    17:00 +1°C° 0 mm 6 mps 758 mmHg 69%
    18:00 +2°C° 0 mm 6 mps 758 mmHg 69%
    19:00 +2°C° 0 mm 6 mps 758 mmHg 68%
    20:00 +2°C° 0 mm 6 mps 758 mmHg 66%
    21:00 +2°C° 0 mm 6 mps 758 mmHg 65%
    22:00 +2°C° 0 mm 6 mps 758 mmHg 67%
    23:00 +2°C° 0 mm 5 mps 758 mmHg 70%
    Show more